Location: Brachstadt
(48.6975°N, 10.6755°E)
Time: 15:35:21
(UTC+00:00)

ATLAS 2AS CENTAUR R/B - Pass Details

Date: 18 September 2020
Orbit: 939 x 1273 km, 63.7° (Epoch: 19 October)

Event Time Altitude Azimuth Distance (km) Brightness Sun altitude
Exits shadow 22:59:05 15° 275° (W) 2,930 5.0 -39.8°
Maximum altitude 23:05:06 36° 335° (NNW) 1,901 4.2 -39.9°
Drops below altitude 10° 23:12:06 10° 40° (NE) 3,173 5.6 -39.9°
Sets 23:15:07 0° 49° (NE) 4,096 6.2 -39.9°
